Wind_Speed
14 13 13 12 12 12 12 13 13 13 13 13 14 14 13 14 14 13 13 14 14 14 14 13 14 14 14 15 15 15 16 16 17 17 18 18 18 18 18 19 18 19 19
15 14 14 14 14 14 13 13 13 14 14 15 15 15 14 14 14 14 14 14 14 13 13 14 15 15 15 15 15 15 16 16 16 17 17 18 18 18 18 19 19 18 19
16 16 16 16 15 14 13 13 14 14 15 15 16 16 16 15 14 15 15 14 14 14 14 14 15 16 16 16 16 16 16 16 16 17 17 18 18 19 18 19 19 19 19
16 16 16 16 16 15 15 15 15 16 16 16 17 17 16 15 14 14 14 14 14 14 14 15 16 16 16 16 16 16 16 16 16 17 17 18 18 19 19 19 20 20 19
16 16 16 16 16 16 16 16 17 18 17 18 18 16 16 15 14 14 13 14 15 15 15 16 16 16 16 16 16 16 16 16 16 17 18 18 18 19 20 19 19 19 19
17 16 17 17 17 16 17 17 18 18 18 18 17 16 15 15 14 13 13 14 16 16 16 16 16 16 16 16 17 16 17 17 17 17 17 17 17 18 19 19 19 19 19
18 18 19 18 18 18 18 18 17 18 18 17 17 15 15 15 14 13 14 15 16 16 17 17 16 17 17 17 17 17 17 17 17 17 17 17 17 17 18 19 19 20 20
18 18 18 18 18 19 19 18 17 17 16 16 15 15 15 15 14 14 15 15 15 15 15 16 16 16 16 16 17 17 17 17 17 17 17 17 18 18 18 19 19 20 20
19 18 18 17 18 18 18 17 17 17 16 15 14 14 15 15 14 15 15 15 15 16 16 16 16 16 16 17 17 17 17 17 17 17 17 18 18 19 19 19 19 20 20
19 18 18 17 17 17 16 17 17 17 17 16 15 14 15 15 15 15 15 15 15 16 16 17 16 16 16 17 18 17 17 17 17 17 17 17 18 18 19 19 19 20 20
20 19 19 19 18 18 17 17 18 18 18 17 16 15 15 15 14 15 15 16 16 16 17 17 17 17 17 17 17 17 17 17 17 17 18 18 18 18 19 19 19 19 20
21 21 21 20 20 19 18 18 18 18 18 17 17 16 16 15 15 15 16 16 16 16 17 17 17 17 18 18 17 18 18 17 18 18 19 19 20 19 20 20 20 20 20
22 21 21 21 20 20 19 18 18 18 17 16 16 17 17 16 16 16 16 17 17 17 17 18 18 18 18 18 18 19 18 18 19 19 20 20 20 20 21 20 20 21 21
23 22 21 21 19 19 19 18 18 18 18 17 17 17 17 16 15 16 16 16 17 18 18 19 19 18 18 18 18 19 19 19 20 20 20 20 20 21 21 21 21 21 21
22 22 22 21 20 20 20 19 19 19 18 17 17 17 17 16 16 16 17 18 18 19 19 18 19 19 19 19 19 19 20 20 20 20 21 21 21 21 21 22 21 21 21
23 23 22 22 21 21 20 20 20 20 19 18 17 18 18 18 18 18 18 18 19 18 18 19 19 19 20 20 20 20 20 21 21 21 21 22 21 21 21 21 21 21 21
22 23 22 21 21 21 22 22 21 20 19 19 19 18 19 19 19 18 18 18 19 18 18 19 19 19 20 20 20 21 21 21 21 21 21 22 22 23 22 22 22 22 23
20 20 19 20 21 21 22 22 21 20 19 19 19 19 20 20 20 20 19 19 19 19 19 19 20 20 21 20 20 20 20 20 21 21 22 22 23 23 22 22 23 23 24
18 19 20 21 21 21 20 20 20 19 18 18 18 18 19 19 20 20 20 20 20 20 20 20 21 21 21 21 21 21 21 21 21 21 22 22 22 22 22 22 23 23 23
20 20 20 20 20 20 19 19 19 19 20 19 19 19 19 19 20 20 21 20 20 20 21 21 20 20 20 20 21 21 22 22 21 21 22 22 22 23 23 22 22 23 23
20 20 20 19 19 19 19 19 19 20 20 20 20 19 19 19 20 21 21 21 22 21 21 21 20 20 20 21 22 22 22 22 21 21 21 21 21 22 23 22 22 23 23
19 19 19 19 19 19 19 19 19 20 20 20 20 20 20 20 20 21 21 22 23 22 22 21 20 20 21 21 22 22 21 21 21 20 20 21 21 21 22 23 23 23 24
20 19 19 18 18 19 19 19 19 20 20 20 21 21 21 21 21 22 21 21 21 21 21 21 21 21 22 23 22 22 22 22 21 21 20 20 21 22 22 22 22 23 23
20 20 19 18 18 18 18 19 20 20 20 21 21 21 21 21 21 22 23 22 22 23 22 23 23 23 24 24 24 23 23 22 22 22 21 21 21 22 22 22 23 23 23
20 20 19 19 18 18 18 18 18 19 19 19 20 21 21 21 22 21 22 24 24 23 23 24 24 24 24 24 25 24 23 23 23 23 23 22 22 22 22 23 23 23 23
20 19 19 20 19 18 18 18 18 18 18 19 20 20 21 21 21 22 23 24 24 23 23 24 24 25 25 25 25 24 24 23 23 23 23 23 23 22 23 23 22 22 22
Wind_Direction
267 268 273 278 281 285 287 284 281 276 277 279 281 279 279 275 276 272 272 274 274 273 276 279 282 281 281 283 286 284 282 278 275 272 271 270 265 261 260 260 259 259 260
265 267 269 273 278 281 282 281 276 275 277 277 280 278 273 271 272 273 276 277 274 269 272 278 282 281 281 284 284 283 280 277 273 272 272 271 266 262 262 261 260 259 259
263 264 265 269 276 280 280 282 277 274 278 275 277 280 278 276 276 277 277 275 273 272 271 275 279 281 282 283 283 283 281 277 275 276 275 270 266 263 263 264 263 262 261
265 263 264 266 270 273 276 279 276 275 281 278 277 276 275 275 275 274 272 269 269 270 271 275 281 282 281 282 283 281 281 278 278 278 276 273 268 263 261 261 263 264 263
263 263 262 263 267 270 273 276 276 278 281 278 276 274 274 274 273 271 271 271 269 270 273 276 281 284 283 282 281 280 280 279 278 278 278 275 270 267 263 261 263 263 263
261 260 260 261 265 269 271 275 277 279 281 277 272 272 273 273 272 272 275 275 274 274 276 276 279 283 285 282 281 281 280 280 281 280 278 276 272 270 266 263 263 263 263
262 261 262 263 267 270 269 274 277 278 279 276 272 270 274 271 266 268 274 278 277 276 275 276 279 283 285 282 281 283 282 281 282 279 276 275 271 269 269 265 264 264 264
264 263 266 266 269 272 273 274 276 276 274 275 276 273 275 269 264 266 272 277 278 277 276 277 280 282 284 282 282 284 283 281 281 279 275 273 270 268 268 268 267 267 267
262 262 265 268 271 272 272 271 272 275 275 276 275 274 274 267 264 266 270 273 275 275 276 279 281 283 284 283 282 285 283 281 281 279 277 273 270 269 270 271 271 271 270
265 264 263 267 271 272 271 268 269 274 278 276 273 274 273 270 268 269 271 274 275 275 277 279 280 281 283 284 282 284 283 282 281 280 281 279 273 271 271 272 274 274 272
263 263 262 265 268 270 270 270 269 271 276 276 272 272 272 271 269 268 270 274 274 274 278 282 280 280 282 286 283 280 281 282 283 282 282 281 278 275 273 274 275 275 274
264 264 263 263 266 269 270 270 270 273 274 275 270 271 271 270 268 268 272 275 278 277 278 281 282 281 280 283 284 281 282 283 282 283 283 283 281 277 274 274 273 273 274
265 265 265 266 266 268 269 271 272 272 270 270 268 268 267 267 268 271 272 275 278 278 278 280 282 283 283 285 284 284 282 283 284 284 283 283 282 277 274 273 273 273 273
265 265 268 268 266 267 268 270 271 271 269 269 266 265 265 265 268 270 272 275 276 277 279 280 282 283 283 284 285 287 285 284 284 284 282 281 281 278 274 273 273 274 274
265 266 269 267 263 264 265 268 270 271 270 269 264 264 264 266 267 269 272 275 278 279 281 280 282 284 284 284 284 285 285 284 284 284 283 281 280 278 276 274 274 275 275
261 264 267 266 266 264 263 267 268 269 267 265 261 262 262 262 264 267 271 275 279 280 282 283 284 285 286 285 284 285 284 285 284 284 283 281 280 278 276 275 276 276 277
263 265 267 268 267 266 264 265 264 264 265 263 259 258 259 261 264 267 270 273 276 279 282 283 284 286 288 287 286 285 285 285 284 283 282 280 278 277 275 275 275 276 277
265 266 268 270 269 269 267 266 264 265 264 262 262 260 258 261 264 266 268 271 273 276 279 282 284 285 286 286 287 287 287 285 283 283 282 281 280 278 276 276 275 275 276
266 267 270 271 270 269 269 265 262 263 264 264 263 261 262 263 264 266 269 271 273 275 277 280 283 284 285 285 285 286 286 284 283 282 281 280 279 278 278 278 277 277 276
267 268 269 269 268 268 267 262 259 261 262 263 262 261 261 262 264 267 270 270 272 277 279 280 280 280 282 284 284 285 285 284 283 284 282 279 279 279 278 279 279 278 277
264 267 269 271 268 266 266 261 258 260 260 260 261 262 263 266 268 269 271 272 275 277 279 280 279 279 280 282 284 285 286 285 283 282 282 280 281 280 279 280 281 279 279
264 267 268 269 269 268 266 262 258 258 259 261 261 264 267 270 271 270 272 274 275 277 278 278 279 279 280 282 284 286 285 285 284 283 282 281 280 280 280 281 280 280 281
264 267 270 268 270 270 266 262 259 259 261 261 262 265 267 271 272 272 272 274 274 275 277 278 279 279 279 280 281 283 284 285 284 282 281 281 281 281 281 283 283 283 283
264 267 268 267 269 269 266 263 260 259 262 262 264 266 268 270 274 273 273 274 277 278 278 277 278 279 278 279 280 282 283 283 283 281 279 279 281 284 283 284 285 284 284
265 264 265 265 265 262 261 262 263 263 264 265 265 266 269 272 274 274 274 277 279 281 279 278 280 281 279 279 280 279 278 279 280 281 281 281 282 284 285 286 285 284 284
262 261 261 261 261 259 261 264 264 263 265 266 268 269 272 273 274 275 278 279 280 280 280 281 281 282 281 279 278 277 277 279 280 280 280 280 281 282 284 285 284 283 284
Height
5840 5840 5840 5840 5840 5839 5839 5839 5838 5838 5837 5837 5837 5836 5836 5836 5836 5835 5835 5835 5835 5835 5835 5835 5835 5834 5834 5833 5833 5832 5831 5831 5831 5831 5831 5831 5831 5832 5833 5834 5834 5835 5836
5836 5836 5836 5836 5837 5836 5836 5835 5835 5835 5834 5834 5834 5833 5833 5832 5832 5832 5831 5831 5830 5831 5831 5831 5831 5831 5830 5829 5829 5828 5827 5827 5827 5827 5827 5827 5828 5827 5828 5829 5829 5830 5831
5832 5832 5832 5833 5833 5833 5832 5832 5832 5831 5831 5830 5830 5830 5829 5829 5828 5828 5828 5827 5827 5827 5828 5828 5827 5827 5826 5825 5825 5824 5824 5823 5823 5823 5823 5822 5823 5823 5824 5824 5825 5825 5826
5828 5828 5828 5828 5829 5829 5829 5828 5828 5828 5827 5826 5826 5826 5825 5825 5824 5824 5824 5823 5823 5824 5824 5824 5823 5823 5822 5821 5821 5820 5819 5819 5819 5818 5818 5818 5818 5819 5819 5820 5820 5820 5820
5824 5824 5824 5824 5825 5825 5824 5824 5824 5823 5823 5822 5822 5821 5821 5820 5820 5820 5820 5820 5820 5820 5820 5820 5819 5819 5818 5817 5817 5816 5816 5815 5814 5814 5814 5813 5813 5814 5814 5815 5815 5815 5815
5821 5821 5821 5821 5821 5821 5820 5820 5819 5819 5818 5817 5817 5816 5816 5816 5816 5816 5816 5816 5816 5816 5816 5816 5815 5815 5814 5813 5813 5812 5812 5811 5810 5810 5809 5809 5809 5809 5809 5810 5810 5810 5811
5817 5817 5817 5816 5817 5816 5816 5815 5815 5814 5813 5812 5812 5811 5812 5812 5812 5812 5812 5812 5812 5812 5812 5811 5811 5810 5810 5809 5809 5808 5807 5807 5806 5805 5805 5805 5805 5805 5805 5805 5805 5805 5805
5813 5813 5812 5812 5812 5812 5812 5811 5810 5809 5809 5808 5807 5807 5807 5807 5807 5808 5808 5808 5808 5808 5807 5807 5807 5806 5806 5805 5804 5803 5803 5802 5801 5801 5800 5800 5800 5800 5800 5800 5799 5800 5800
5808 5808 5808 5808 5807 5807 5806 5806 5805 5805 5805 5804 5803 5803 5803 5803 5803 5804 5804 5804 5804 5804 5804 5803 5803 5802 5801 5801 5800 5799 5798 5797 5797 5796 5796 5795 5795 5795 5795 5794 5794 5794 5794
5803 5803 5802 5802 5802 5802 5801 5801 5801 5801 5800 5800 5799 5799 5799 5800 5800 5800 5800 5800 5800 5800 5799 5799 5798 5797 5797 5796 5796 5795 5794 5793 5792 5792 5791 5790 5790 5789 5789 5789 5789 5788 5789
5798 5798 5798 5797 5797 5797 5797 5796 5796 5796 5796 5796 5795 5795 5795 5795 5795 5796 5796 5796 5795 5795 5795 5794 5793 5793 5792 5791 5790 5790 5789 5788 5788 5787 5786 5785 5784 5784 5784 5783 5783 5783 5783
5792 5793 5793 5793 5793 5792 5792 5792 5791 5791 5791 5791 5791 5791 5791 5791 5791 5791 5792 5791 5790 5790 5790 5789 5789 5788 5787 5786 5785 5785 5784 5784 5783 5782 5781 5780 5779 5779 5778 5778 5778 5777 5777
5786 5787 5787 5787 5787 5787 5787 5787 5786 5786 5786 5786 5786 5786 5786 5787 5786 5787 5787 5787 5786 5786 5785 5785 5784 5783 5783 5781 5781 5780 5779 5779 5778 5777 5776 5775 5774 5773 5773 5772 5772 5772 5771
5780 5781 5781 5781 5781 5782 5782 5782 5781 5781 5781 5781 5781 5781 5782 5782 5782 5782 5782 5782 5782 5781 5780 5780 5779 5778 5777 5776 5776 5775 5774 5773 5772 5771 5770 5769 5768 5767 5767 5766 5766 5766 5765
5774 5774 5775 5775 5775 5776 5776 5776 5776 5776 5776 5776 5776 5777 5777 5778 5778 5778 5777 5777 5777 5776 5775 5774 5774 5773 5772 5771 5770 5769 5768 5767 5766 5765 5764 5763 5762 5761 5761 5760 5760 5759 5759
5768 5769 5769 5769 5769 5770 5770 5771 5770 5770 5771 5771 5771 5772 5772 5772 5773 5772 5772 5772 5771 5770 5770 5769 5768 5767 5766 5765 5764 5763 5762 5761 5760 5759 5758 5757 5756 5755 5755 5754 5754 5753 5753
5762 5763 5763 5763 5763 5764 5764 5764 5764 5765 5765 5765 5766 5766 5766 5767 5767 5767 5767 5767 5766 5765 5764 5763 5762 5761 5760 5759 5758 5756 5755 5754 5753 5753 5752 5751 5750 5749 5748 5748 5747 5747 5746
5756 5757 5757 5757 5757 5757 5758 5758 5759 5759 5759 5759 5760 5760 5761 5761 5761 5761 5761 5761 5760 5759 5758 5758 5756 5755 5754 5753 5752 5750 5749 5748 5747 5746 5745 5745 5744 5743 5742 5741 5741 5740 5740
5751 5751 5751 5751 5751 5751 5751 5752 5752 5753 5753 5754 5754 5754 5755 5755 5755 5755 5755 5755 5754 5753 5752 5751 5750 5749 5748 5746 5745 5744 5743 5742 5741 5740 5739 5738 5737 5737 5736 5735 5734 5734 5733
5745 5745 5745 5745 5745 5745 5745 5746 5746 5747 5748 5748 5748 5748 5749 5749 5749 5749 5749 5748 5747 5747 5746 5744 5744 5742 5741 5740 5739 5738 5737 5736 5735 5734 5732 5731 5730 5730 5729 5728 5728 5727 5727
5739 5739 5740 5740 5740 5739 5739 5740 5741 5741 5741 5742 5743 5743 5743 5744 5744 5743 5742 5742 5741 5741 5740 5738 5737 5736 5735 5734 5733 5732 5730 5730 5728 5727 5726 5725 5724 5723 5722 5721 5721 5720 5720
5733 5733 5734 5734 5733 5733 5733 5734 5735 5735 5736 5736 5737 5737 5738 5738 5737 5737 5736 5736 5735 5734 5733 5732 5731 5730 5729 5728 5727 5725 5724 5723 5722 5721 5720 5719 5717 5717 5716 5715 5714 5713 5713
5727 5727 5727 5727 5727 5727 5728 5728 5729 5730 5730 5731 5731 5731 5732 5732 5731 5731 5730 5729 5728 5728 5727 5726 5725 5724 5723 5721 5720 5719 5718 5717 5716 5715 5714 5713 5712 5710 5710 5709 5708 5707 5706
5720 5720 5721 5721 5722 5722 5722 5722 5723 5724 5724 5725 5725 5725 5725 5725 5725 5724 5723 5722 5722 5721 5720 5719 5718 5717 5716 5715 5713 5712 5711 5710 5709 5708 5707 5706 5705 5704 5703 5703 5701 5700 5699
5713 5714 5715 5715 5716 5716 5716 5717 5717 5718 5718 5718 5719 5719 5719 5718 5718 5717 5716 5716 5715 5714 5713 5712 5711 5710 5709 5708 5707 5705 5704 5703 5702 5701 5700 5700 5699 5698 5697 5696 5694 5693 5692
5707 5708 5708 5709 5710 5710 5710 5711 5711 5712 5712 5712 5712 5712 5712 5712 5711 5711 5709 5708 5708 5707 5706 5704 5703 5702 5701 5700 5699 5698 5697 5696 5695 5694 5694 5693 5692 5691 5690 5689 5688 5686 5685